Location: Catacaguana
(10.4120°N, 66.7591°W)
Time: 19:34:16
(UTC+00:00)

FengYun 1-2 T - Pass Details

Date: 31 January 2023
Orbit: 847 x 880 km, 98.7° (Epoch: 24 March)

Event Time Altitude Azimuth Distance (km) Brightness Sun altitude
Rises 09:22:03 0° 21° (NNE) 3,454 7.5 -21.6°
Reaches altitude 10° 09:24:30 10° 27° (NNE) 2,520 6.8 -21.1°
Maximum altitude 09:29:55 51° 102° (ESE) 1,094 5.2 -19.8°
Drops below altitude 10° 09:35:22 10° 177° (S) 2,530 6.9 -18.5°
Sets 09:37:50 0° 182° (S) 3,469 7.6 -17.9°
